Location: Easthampton
(42.2676°N, 72.6690°W)
Time: 15:21:31
(UTC+00:00)

Gurwin Techsat 1B - Pass Details

Date: 01 April 2023
Orbit: 811 x 813 km, 98.9° (Epoch: 02 June)

Event Time Altitude Azimuth Distance (km) Brightness Sun altitude
Rises 08:45:58 0° 4° (N) 3,348 12.2 -19.9°
Reaches altitude 10° 08:48:33 10° 354° (N) 2,412 11.3 -19.5°
Maximum altitude 08:53:08 30° 294° (WNW) 1,417 9.5 -18.7°
Enters shadow 08:54:04 29° 275° (W) 1,470 9.5 -18.5°
